[Iaude] MPEC P34: 2024 PC [a=1.46,e=0.34,i=1.0,H=26.3]
    mpec at cfa.harvard.edu 
    mpec at cfa.harvard.edu
       
    Fri Aug  2 16:58:05 EDT 2024
    
    
  
M.P.E.C. 2024-P34                                Issued 2024 August 2, 20:56 UT
     The Minor Planet Electronic Circulars contain information on unusual
         minor planets, routine data on comets and natural satellites,
         and occasional editorial announcements.  They are published
    on behalf of Division F of the International Astronomical Union by the
          Minor Planet Center, Smithsonian Astrophysical Observatory,
                          Cambridge, MA 02138, U.S.A.
			  
             Prepared using the Tamkin Foundation Computer Network
                              MPC at CFA.HARVARD.EDU
            URL https://www.minorplanetcenter.net/    ISSN 1523-6714
                                    2024 PC                                     
Observations:
     K24P00C  C2024 08 01.43464121 47 03.592-48 05 03.15         17.61GVEP034F51
     K24P00C  C2024 08 01.45329421 47 31.915-47 49 54.48         17.28GVEP034F51
     K24P00C  C2024 08 01.46131321 47 43.865-47 43 24.93               VEP034F51
     K24P00C  C2024 08 01.46856521 47 54.560-47 37 31.31               VEP034F51
     K24P00C* C2024 08 01.94938322 00 27.703-41 35 37.79         18.58oVEP034M22
     K24P00C  C2024 08 01.95272822 00 30.792-41 33 28.58         18.06oVEP034M22
     K24P00C  C2024 08 01.97352322 00 49.690-41 20 03.26         17.92oVEP034M22
     K24P00C  C2024 08 01.99333022 01 07.241-41 07 17.33         17.64oVEP034M22
     K24P00C KC2024 08 02.49072522 09 44.369-36 17 06.86         18.2 GVEP034474
     K24P00C KC2024 08 02.49149422 09 44.844-36 16 43.86         18.4 GVEP034474
     K24P00C KC2024 08 02.49226422 09 45.338-36 16 20.75         18.3 GVEP034474
     K24P00C KC2024 08 02.49303422 09 45.828-36 15 57.74         18.1 GVEP034474
     K24P00C KC2024 08 02.49380322 09 46.332-36 15 34.63         18.1 GVEP034474
     K24P00C KC2024 08 02.53823 22 10 12.283-35 53 33.18         18.1 GVEP034R65
     K24P00C KC2024 08 02.53902 22 10 12.730-35 53 09.42         18.0 GVEP034R65
     K24P00C KC2024 08 02.53981 22 10 13.202-35 52 45.62         18.1 GVEP034R65
     K24P00C KC2024 08 02.54061 22 10 13.678-35 52 21.86         18.1 GVEP034R65
     K24P00C  C2024 08 02.83711 22 14 15.20 -33 31 41.1          18.7 GVEP034M28
     K24P00C  C2024 08 02.83912 22 14 16.28 -33 30 50.9          18.0 GVEP034M28
     K24P00C  C2024 08 02.84115 22 14 17.36 -33 29 59.8          18.4 GVEP034M28
Observer details:
474 Mount John Observatory, Lake Tekapo.  Observers A. C. Gilmore, P. M.
    Kilmartin.  Measurer P. M. Kilmartin.  0.6-m f/6.3 Reflector + CCD.
F51 Pan-STARRS 1, Haleakala.  Observers J. Herman, T. Lowe, P. Minguez, A.
    Schultz, I. Smith.  Measurers K. Chambers, T. de Boer, J. Fairlamb, H.
    Gao, M. Huber, C.-C. Lin, E. Magnier, Y. Ramanjooloo, R. Wainscoat, R.
    Weryk.  1.8-m Ritchey-Chretien + CCD.
M22 ATLAS South Africa, Sutherland.  Observers L. Denneau, R. Siverd, J.
    Tonry, H. Weiland.  Measurers L. Denneau, N. Erasmus, A. Fitzsimmons, J.
    Robinson, R. Siverd, J. Tonry, H. Weiland.  0.5-m Reflector + CCD.
M28 Lesedi Telescope-SAAO Observatory, Sutherland.  Observers N. Erasmus, S.
    Potter, C. van Gend, S. Chandra, H. Worters.  Measurers T. Ngwane, N.
    Erasmus.  1.0-m f/8 Reflector + CCD.
R65 R. F. Joyce Observatory, Christchurch.  Observer R. B. Glassey.  0.4-m
    f/8.0 Schmidt Cassegrain + CCD.
Orbital elements:
2024 PC                                                  Earth MOID = 0.0070 AU
Epoch 2024 Oct. 17.0 TT = JDT 2460600.5                 MPC                     
M  61.01491              (2000.0)            P               Q                  
n   0.55696299     Peri.  302.92849     +0.02511540     +0.99964198             
a   1.4630253      Node   328.50675     -0.91119508     +0.01909493             
e   0.3369622      Incl.    1.01198     -0.41120889     +0.01874280             
P   1.77           H   26.35          G   0.15           U   7                  
Residuals in seconds of arc
240801 F51  0.0   0.3+    240801 M22  0.1-  0.2+    240802 R65  0.1-  0.1+
240801 F51  0.0   0.4+    240802 474  0.1+  0.2+    240802 R65  0.0   0.0
240801 F51  0.0   0.6-    240802 474  0.1-  0.1+    240802 R65  0.1+  0.1-
240801 F51  0.2-  0.2-    240802 474  0.0   0.1+    240802 M28  0.4-  0.6+
240801 M22  0.1+  0.0     240802 474  0.0   0.0     240802 M28  0.3-  0.1+
240801 M22  0.1+  0.3-    240802 474  0.2+  0.1+    240802 M28  0.3-  0.1+
240801 M22  0.2+  0.0     240802 R65  0.0   0.2-
Ephemeris:
2024 PC                  a,e,i = 1.46, 0.34, 1                   q = 0.9700
Date    TT    R. A. (2000) Decl.     Delta      r    Elong.  Phase     V
2024 07 03    10 44 48.2 +00 44 42   0.1081  0.9695    61.4   113.0    25.8
...
2024 07 18    10 58 22.6 -05 29 14   0.04968 0.9873    53.3   124.4    25.0
...
2024 07 26    11 16 40.4 -20 49 47   0.01942 1.0057    58.7   120.3    22.7
...
2024 08 01    21 28 17.7 -54 26 24   0.01009 1.0230   142.7    37.0    17.9
2024 08 02    22 01 13.2 -41 01 47   0.01279 1.0262   152.1    27.6    18.2
2024 08 03    22 15 24.9 -32 24 12   0.01600 1.0294   156.2    23.4    18.5
...
2024 08 09    22 36 46.7 -14 38 33   0.03842 1.0502   160.5    18.8    20.3
...
2024 08 17    22 40 39.1 -09 22 22   0.07079 1.0813   166.1    13.0    21.5
...
2024 09 01    22 39 44.6 -06 51 35   0.1385  1.1477   178.5     1.3    22.5
A. U. Tomatic                (C) Copyright 2024 MPC           M.P.E.C. 2024-P34
    
    
More information about the Iaude
mailing list